Погода в Иксии

Греция     36°26′53″N   28°13′32″E
темп.,
°C
ветер,
м/с
пор.,
м/с
влажн.,
%
обл.,
%
осадки,
мм/ч
давл.,
гПа
погр.,
м
7 мая, пт
пт700:00+20зсз81281100 0.0 1013233
03:00+20з911815 0.0 1012221
06:00+19зсз5780100 0.0 1012134
09:00+20зсз227312 0.0 101329
12:00+21з336748 0.0 101442
15:00+22ююз12669 0.0 101475
18:00+23ююв226624 0.0 101393
21:00+21вюв227142 0.0 101311
8 мая, сб
сб800:00+21вюв227067 0.0 101312
03:00+21вюв447185 0.0 101229
06:00+20вюв4474100 0.0 101242
09:00+20вюв5676100 0.0 101382
12:00+20в4480100 0.0 101470
15:00+20в81184100 0.0 1011313
18:00+20вюв3382100 0.0 101138
21:00+20юв468287 0.0 1011109
9 мая, вс
вс900:00+20всв22805 0.0 101114
03:00+21ссз33720 0.0 101015
06:00+21з44690 0.0 101030
09:00+20зсз55690 0.0 101181
12:00+21зсз710690 0.0 1012118
15:00+21з810680 0.0 101094
18:00+23з912672 0.0 1008112
21:00+21с23832 0.0 100917
10 мая, пн
пн1000:00+21зсз33770 0.0 101026
03:00+20зсз55740 0.0 101073
06:00+19зсз66720 0.0 1010106
09:00+19сз66700 0.0 1011142
12:00+20зсз78690 0.0 1011135
15:00+21з89630 0.0 1011127
18:00+20з911650 0.0 1010137
21:00+20з79710 0.0 1009125
11 мая, вт
вт1100:00+20з68730 0.0 1009171
03:00+20зсз78750 0.0 1008193
06:00+19зсз78750 0.0 1008245
09:00+19зсз67720 0.0 1009230
12:00+19зсз78710 0.0 1010168
15:00+21з56655 0.0 100986
18:00+20з89680 0.0 1008175
21:00+19з79770 0.0 1008180